Regional Weather Roundup
Issued by NWS

Home | Current Version | Previous Version | Text Only | Print | Product List | Glossary On
Versions: 1 2 3 4 5 6 7 8 9 10 11 12 13 14 15 16 17 18 19 20 21 22 23 24 25 26 27 28 29 30 31 32 33 34 35 36 37 38 39 40 41 42 43 44 45 46 47 48 49 50
000
ASCA44 KEWX 031220
RWRMX

LATIN AMERICA AND CARIBBEAN REGIONAL WEATHER ROUNDUP
NATIONAL WEATHER SERVICE AUSTIN/SAN ANTONIO TX
600 AM CST TUE MAR 03 2015

NOTE: "FAIR" INDICATED FEW OR NO CLOUDS BELOW 12,000 FEET WITH NO
SIGNIFICANT WEATHER AND/OR OBSTRUCTIONS TO VISIBILITY.

BAJA CALIFORNIA

CITY           SKY/WX    TMP DP  RH WIND       PRES   REMARKS
TIJUANA        MOCLDY    50  45  81 E5        29.94F WCI  48

NORTHWESTERN MEXICO

CITY           SKY/WX    TMP DP  RH WIND       PRES   REMARKS
DURANGO        CLEAR     50  39  66 S6        30.20S WCI  48
HERMOSILLO     CLOUDY    64  63  94 S3        29.90F
LOS MOCHIS     MOCLDY    70  59  68 SE5       29.90
OBREGON        CLOUDY    64  59  82 SE9       29.87

NORTHEASTERN MEXICO

CITY           SKY/WX    TMP DP  RH WIND       PRES   REMARKS
CHIHUAHUA      MOCLDY    59  34  38 S20       30.00
MONTERREY      CLOUDY    52  50  93 CALM      29.99S FOG
NUEVO LAREDO   CLOUDY    48  46  93 N5        30.03  FOG     WCI  46
REYNOSA        DRZL/FOG  52  50  93 N3        30.01  VSB 1/4
SALTILLO       CLEAR     63  52  67 SE21      30.10
TORREON        CLEAR     59  46  63 CALM      30.02S
CD. VICTORIA   CLEAR     66  66 100 S14       29.98

WESTERN MEXICO

CITY           SKY/WX    TMP DP  RH WIND       PRES   REMARKS
MAZATLAN       CLEAR     54  50  87 NE10      29.92S

CENTRAL MEXICO

CITY           SKY/WX    TMP DP  RH WIND       PRES   REMARKS
MEXICO CITY    CLEAR     48  39  71 NE5       30.30R WCI  46
POZA RICA      FOG       68  68 100 NW7       30.05  VSB 1/2
PUEBLA         PTCLDY    41  37  87 NW3       30.33R
QUERETARO      CLEAR     46  45  93 CALM      30.29R
TAMPICO        FOG       64  63  94 CALM      30.03  VSB 0
TOLUCA         CLEAR     37  32  81 CALM      30.36S FOG

SOUTHERN MEXICO

CITY           SKY/WX    TMP DP  RH WIND       PRES   REMARKS
ACAPULCO       CLEAR     72  64  78 N2        29.89R
OAXACA         CLEAR     50  45  81 N6        30.28  WCI  48
VERACRUZ       FOG       63  61  94 W3        30.03  VSB 1

YUCATAN PENINSULA

CITY           SKY/WX    TMP DP  RH WIND       PRES   REMARKS
CAMPECHE       MOCLDY    73  72  94 E7        30.01R
CANCUN         PTCLDY    77  72  83 NE6       30.06R
CHETUMAL       PTCLDY    73  64  73 CALM      30.01
CD. DEL CARMEN PTCLDY    77  72  83 E12       29.99
COZUMEL        PTCLDY    68  68 100 E5        30.05R
MERIDA         CLOUDY    72  70  94 E6        30.06R FOG
MINATITLAN     PTCLDY    72  68  88 CALM      29.98
TAPACHULA      CLEAR     73  66  78 CALM      29.88R
TUX. GUTIERREZ CLEAR     63  59  88 CALM      30.03
VILLAHERMOSA   CLOUDY    73  72  94 CALM      30.01R FOG

CENTRAL AMERICA

CITY           SKY/WX    TMP DP  RH WIND       PRES   REMARKS
BELIZE CITY    MOCLDY    73  72  94 CALM      30.01R
MANAGUA        MOSUNNY   75  64  69 E7        29.89R

CARIBBEAN

CITY           SKY/WX    TMP DP  RH WIND       PRES   REMARKS
ARUBA          MOSUNNY   79  72  78 E14       29.94R
CURACAO        PTSUNNY   77 N/A N/A E5        29.97R
KINGSTON       PTCLDY    75  72  88 SE3       30.00R
NASSAU         PTCLDY    72  68  88 NE5       30.17R
SAN JUAN       MOSUNNY   75  70  83 S3        30.06R
SANTO DOMINGO  MOSUNNY   70  68  94 N6        30.06R
ST. CROIX      SUNNY     79  66  65 NE9       30.04
ST. KITTS      MOSUNNY   79  68  69 NE16      30.03R
ST. MAARTEN    MOSUNNY   79  66  65 E13       30.03R

$$



USA.gov is the U.S. government's official web portal to all federal, state and local government web resources and services.